This is the latest recevied weather packets stored in our database for station/object DJ5CM-10. If no packets are shown the sender has not sent any weather packets the latest 1 day(s).
| Time | Temp. | Humidity | Pressure | Rain* | Wind** | Luminosity | Snow |
|---|---|---|---|---|---|---|---|
| 1778064778 | 15° C | 60% | 1009 hPa | - | - | - | - |
| 1778063878 | 14.44° C | 62% | 1009.1 hPa | - | - | - | - |
| 1778062978 | 14.44° C | 62% | 1009.2 hPa | - | - | - | - |
| 1778062078 | 13.89° C | 63% | 1009.2 hPa | - | - | - | - |
| 1778060277 | 13.33° C | 66% | 1009.3 hPa | - | - | - | - |
| 1778058477 | 12.78° C | 68% | 1009.3 hPa | - | - | - | - |
| 1778057577 | 12.22° C | 69% | 1009.3 hPa | - | - | - | - |
| 1778056677 | 11.67° C | 70% | 1009.4 hPa | - | - | - | - |
| 1778055777 | 11.67° C | 71% | 1009.3 hPa | - | - | - | - |
| 1778054877 | 11.11° C | 71% | 1009.2 hPa | - | - | - | - |
| 1778053977 | 10.56° C | 73% | 1009.2 hPa | - | - | - | - |
| 1778053076 | 10.56° C | 73% | 1009.3 hPa | - | - | - | - |
| 1778050375 | 9.44° C | 74% | 1009.3 hPa | - | - | - | - |
| 1778049475 | 8.89° C | 75% | 1009.3 hPa | - | - | - | - |
| 1778048575 | 8.33° C | 76% | 1009.3 hPa | - | - | - | - |
| 1778047698 | 8.33° C | 75% | 1009.1 hPa | - | - | - | - |
| 1778046798 | 7.78° C | 75% | 1009.1 hPa | - | - | - | - |
| 1778045898 | 7.78° C | 74% | 1009.2 hPa | - | - | - | - |
| 1778044998 | 7.22° C | 73% | 1009.2 hPa | - | - | - | - |
| 1778042297 | 6.67° C | 72% | 1009.2 hPa | - | - | - | - |
| 1778041397 | 6.67° C | 72% | 1009.2 hPa | - | - | - | - |
| 1778040497 | 6.67° C | 71% | 1009.2 hPa | - | - | - | - |
| 1778039597 | 6.67° C | 71% | 1009.2 hPa | - | - | - | - |
| 1778038697 | 6.67° C | 71% | 1009.3 hPa | - | - | - | - |
| 1778037797 | 6.67° C | 70% | 1009.2 hPa | - | - | - | - |
* Rain since midnight (hover to see other rain measurements)
** Current wind speed in m/s (hover to see current wind gust speed)